• In Uzbekistan
  • List of Countries
  • For 7 days
  • Water Temperature
  • Satellite Maps
  • Weather Map
  • Weather Widgets
  • user-avatar
    Login

    Hourly Weather Quito

    Today, 1 March, Wednesday

    Time Temperature Precipitation Wind Pressure Humidity
    00:00 +14°C° 0 mm 1 mps 620 mmHg 85%
    01:00 +14°C° 0 mm 1 mps 620 mmHg 85%
    02:00 +14°C° 0 mm 1 mps 620 mmHg 85%
    03:00 +14°C° 0 mm 1 mps 620 mmHg 85%
    04:00 +14°C° 0 mm 1 mps 620 mmHg 85%
    05:00 +15°C° 0 mm 1 mps 621 mmHg 85%
    06:00 +16°C° 0 mm 1 mps 621 mmHg 84%
    07:00 +18°C° 0 mm 1 mps 622 mmHg 80%
    08:00 +20°C° 0 mm 1 mps 622 mmHg 72%
    09:00 +23°C° 0 mm 1 mps 623 mmHg 64%
    10:00 +25°C° 0 mm 1 mps 624 mmHg 56%
    11:00 +26°C° 0.2 mm 1 mps 624 mmHg 54%
    12:00 +26°C° 0.2 mm 1 mps 623 mmHg 51%
    13:00 +26°C° 0 mm 1 mps 623 mmHg 54%
    14:00 +26°C° 0.1 mm 1 mps 622 mmHg 55%
    15:00 +26°C° 0.1 mm 1 mps 622 mmHg 56%
    16:00 +26°C° 0.1 mm 1 mps 621 mmHg 57%
    17:00 +23°C° 0.5 mm 1 mps 621 mmHg 67%
    18:00 +20°C° 0.5 mm 1 mps 620 mmHg 77%
    19:00 +18°C° 0.5 mm 1 mps 619 mmHg 88%
    20:00 +15°C° 0.1 mm 0 mps 620 mmHg 88%
    21:00 +15°C° 0.1 mm 0 mps 620 mmHg 88%
    22:00 +15°C° 0.1 mm 0 mps 621 mmHg 88%
    23:00 +15°C° 0 mm 1 mps 621 mmHg 89%

    Tomorrow, 2 March, Thursday

    Time Temperature Precipitation Wind Pressure Humidity
    00:00 +15°C° 0 mm 1 mps 621 mmHg 90%
    01:00 +15°C° 0 mm 1 mps 621 mmHg 91%
    02:00 +15°C° 0 mm 1 mps 621 mmHg 93%
    03:00 +14°C° 0 mm 1 mps 620 mmHg 94%
    04:00 +14°C° 0 mm 1 mps 620 mmHg 95%
    05:00 +15°C° 0 mm 1 mps 621 mmHg 93%
    06:00 +16°C° 0 mm 1 mps 621 mmHg 92%
    07:00 +16°C° 0 mm 1 mps 622 mmHg 90%
    08:00 +20°C° 0 mm 1 mps 623 mmHg 80%
    09:00 +22°C° 0 mm 1 mps 623 mmHg 70%
    10:00 +24°C° 0 mm 2 mps 624 mmHg 60%
    11:00 +25°C° 0.1 mm 2 mps 624 mmHg 56%
    12:00 +26°C° 0.1 mm 2 mps 624 mmHg 51%
    13:00 +27°C° 0.1 mm 3 mps 623 mmHg 47%
    14:00 +26°C° 0.4 mm 3 mps 623 mmHg 52%
    15:00 +26°C° 0.4 mm 2 mps 622 mmHg 57%
    16:00 +25°C° 0.4 mm 2 mps 621 mmHg 62%
    17:00 +23°C° 0.2 mm 2 mps 621 mmHg 69%
    18:00 +21°C° 0.2 mm 1 mps 620 mmHg 76%
    19:00 +19°C° 0.2 mm 1 mps 620 mmHg 82%
    20:00 +19°C° 0 mm 1 mps 620 mmHg 82%
    21:00 +19°C° 0 mm 1 mps 621 mmHg 81%
    22:00 +19°C° 0 mm 1 mps 621 mmHg 81%
    23:00 +18°C° 0.2 mm 1 mps 621 mmHg 84%

    Day after tomorrow, 3 March, Friday

    Time Temperature Precipitation Wind Pressure Humidity
    00:00 +18°C° 0.2 mm 1 mps 621 mmHg 88%
    01:00 +16°C° 0.2 mm 1 mps 621 mmHg 91%
    02:00 +16°C° 0.2 mm 1 mps 620 mmHg 92%
    03:00 +15°C° 0.2 mm 1 mps 620 mmHg 93%
    04:00 +15°C° 0.2 mm 1 mps 620 mmHg 94%
    05:00 +16°C° 0.1 mm 1 mps 620 mmHg 93%
    06:00 +16°C° 0.1 mm 1 mps 621 mmHg 92%
    07:00 +18°C° 0.1 mm 1 mps 621 mmHg 91%
    08:00 +20°C° 0 mm 1 mps 622 mmHg 81%
    09:00 +22°C° 0 mm 1 mps 623 mmHg 71%
    10:00 +24°C° 0 mm 1 mps 624 mmHg 61%
    11:00 +25°C° 0 mm 1 mps 624 mmHg 54%
    12:00 +27°C° 0 mm 2 mps 623 mmHg 46%
    13:00 +28°C° 0 mm 2 mps 623 mmHg 39%
    14:00 +28°C° 0 mm 3 mps 622 mmHg 40%
    15:00 +28°C° 0 mm 3 mps 622 mmHg 40%
    16:00 +27°C° 0 mm 3 mps 621 mmHg 40%
    17:00 +24°C° 0 mm 2 mps 620 mmHg 49%
    18:00 +21°C° 0 mm 2 mps 619 mmHg 58%
    19:00 +19°C° 0 mm 1 mps 619 mmHg 67%
    20:00 +17°C° 0 mm 2 mps 619 mmHg 67%
    21:00 +17°C° 0 mm 2 mps 619 mmHg 68%
    22:00 +16°C° 0 mm 2 mps 620 mmHg 68%
    23:00 +15°C° 0 mm 2 mps 620 mmHg 70%

    4 March, Saturday

    Time Temperature Precipitation Wind Pressure Humidity
    00:00 +15°C° 0 mm 2 mps 619 mmHg 72%
    01:00 +15°C° 0 mm 2 mps 619 mmHg 74%
    02:00 +14°C° 0 mm 2 mps 619 mmHg 74%
    03:00 +14°C° 0 mm 2 mps 618 mmHg 74%
    04:00 +13°C° 0 mm 2 mps 618 mmHg 75%
    05:00 +14°C° 0 mm 2 mps 619 mmHg 73%
    06:00 +14°C° 0 mm 2 mps 619 mmHg 71%
    07:00 +15°C° 0 mm 2 mps 620 mmHg 69%
    08:00 +18°C° 0 mm 2 mps 621 mmHg 57%
    09:00 +21°C° 0 mm 3 mps 622 mmHg 44%
    10:00 +26°C° 0 mm 3 mps 623 mmHg 32%
    11:00 +27°C° 0 mm 3 mps 623 mmHg 29%
    12:00 +28°C° 0 mm 3 mps 623 mmHg 26%
    13:00 +29°C° 0 mm 4 mps 622 mmHg 24%
    14:00 +29°C° 0 mm 3 mps 622 mmHg 25%
    15:00 +29°C° 0 mm 3 mps 621 mmHg 27%
    16:00 +29°C° 0 mm 3 mps 620 mmHg 28%
    17:00 +26°C° 0 mm 3 mps 620 mmHg 36%
    18:00 +21°C° 0 mm 3 mps 619 mmHg 44%
    19:00 +18°C° 0 mm 2 mps 619 mmHg 52%
    20:00 +17°C° 0 mm 2 mps 619 mmHg 54%
    21:00 +16°C° 0 mm 2 mps 620 mmHg 56%
    22:00 +15°C° 0 mm 2 mps 620 mmHg 58%
    23:00 +15°C° 0 mm 2 mps 620 mmHg 60%

    5 March, Sunday

    Time Temperature Precipitation Wind Pressure Humidity
    00:00 +14°C° 0 mm 2 mps 619 mmHg 62%
    01:00 +14°C° 0 mm 2 mps 619 mmHg 65%
    02:00 +13°C° 0 mm 2 mps 619 mmHg 66%
    03:00 +13°C° 0 mm 2 mps 619 mmHg 67%
    04:00 +12°C° 0 mm 2 mps 618 mmHg 68%
    05:00 +13°C° 0 mm 2 mps 619 mmHg 67%
    06:00 +13°C° 0 mm 1 mps 620 mmHg 66%
    07:00 +14°C° 0 mm 1 mps 621 mmHg 65%
    08:00 +19°C° 0 mm 1 mps 622 mmHg 53%
    09:00 +23°C° 0 mm 1 mps 623 mmHg 41%
    10:00 +26°C° 0 mm 1 mps 624 mmHg 29%
    11:00 +28°C° 0 mm 2 mps 624 mmHg 26%
    12:00 +29°C° 0 mm 2 mps 623 mmHg 23%
    13:00 +30°C° 0 mm 3 mps 623 mmHg 21%
    14:00 +30°C° 0 mm 3 mps 622 mmHg 22%
    15:00 +30°C° 0 mm 2 mps 622 mmHg 24%
    16:00 +30°C° 0 mm 2 mps 621 mmHg 26%
    17:00 +26°C° 0 mm 2 mps 621 mmHg 34%
    18:00 +21°C° 0 mm 2 mps 620 mmHg 42%
    19:00 +18°C° 0 mm 2 mps 619 mmHg 51%
    20:00 +17°C° 0 mm 2 mps 619 mmHg 52%
    21:00 +16°C° 0 mm 2 mps 620 mmHg 54%
    22:00 +16°C° 0 mm 2 mps 620 mmHg 55%
    23:00 +15°C° 0 mm 2 mps 620 mmHg 57%

    6 March, Monday

    Time Temperature Precipitation Wind Pressure Humidity
    00:00 +14°C° 0 mm 2 mps 619 mmHg 59%
    01:00 +14°C° 0 mm 2 mps 619 mmHg 60%
    02:00 +13°C° 0 mm 2 mps 619 mmHg 61%
    03:00 +13°C° 0 mm 2 mps 619 mmHg 63%
    04:00 +13°C° 0 mm 1 mps 619 mmHg 64%
    05:00 +14°C° 0 mm 1 mps 619 mmHg 64%
    06:00 +15°C° 0 mm 1 mps 620 mmHg 64%
    07:00 +16°C° 0 mm 1 mps 621 mmHg 64%
    08:00 +20°C° 0 mm 1 mps 622 mmHg 54%
    09:00 +24°C° 0 mm 1 mps 623 mmHg 43%
    10:00 +27°C° 0 mm 1 mps 624 mmHg 33%
    11:00 +29°C° 0 mm 1 mps 624 mmHg 30%
    12:00 +30°C° 0 mm 1 mps 624 mmHg 26%
    13:00 +32°C° 0 mm 1 mps 623 mmHg 23%
    14:00 +31°C° 0 mm 1 mps 623 mmHg 24%
    15:00 +31°C° 0 mm 1 mps 622 mmHg 24%
    16:00 +30°C° 0 mm 1 mps 622 mmHg 25%
    17:00 +26°C° 0 mm 1 mps 621 mmHg 35%
    18:00 +22°C° 0 mm 1 mps 619 mmHg 44%
    19:00 +18°C° 0 mm 1 mps 618 mmHg 54%
    20:00 +18°C° 0 mm 1 mps 619 mmHg 54%
    21:00 +17°C° 0 mm 2 mps 619 mmHg 54%
    22:00 +17°C° 0 mm 2 mps 620 mmHg 54%
    23:00 +16°C° 0 mm 2 mps 619 mmHg 56%
    Show more